Location: Champrosay
(48.6613°N, 2.4277°E)
Time: 14:27:00
(UTC+00:00)

Daily predictions for brighter satellites

Satellite Brightness Start Highest point End
(mag) Time Altitude Azimuth Time Altitude Azimuth Time Altitude Azimuth
USA 215 3.6 20:17:05 10° SE 20:23:34 64° SW 20:30:07 10° WNW
Cosmos 494 Rocket 4.1 20:18:55 10° NNW 20:24:13 81° ENE 20:29:28 10° SSE
NOSS 2-3 (D) 4.1 20:24:16 10° S 20:27:26 28° ESE 20:30:51 10° ENE
IRS-1A Rocket 4.4 20:23:33 10° SSE 20:29:11 72° ENE 20:34:58 10° NNW
Okean-O 2.9 20:25:07 10° S 20:29:29 69° WSW 20:33:55 10° NNW
ARGOS Delta rocket 4.4 20:25:34 10° S 20:30:11 60° W 20:35:06 10° NNW
Gbstr 26 Del rocket 3.3 20:27:48 10° WSW 20:32:05 85° NNW 20:37:20 10° ENE
Timation 2 Rocket 4.3 20:26:23 10° S 20:32:19 44° ESE 20:38:04 10° NE
CZ-4C R/B 3.2 20:29:47 10° NNE 20:33:28 56° ESE 20:36:56 10° S
Cosmos 1125 Rocket 4.3 20:29:58 10° SSE 20:34:35 31° E 20:39:13 10° NE
USA 276 1.9 20:36:34 10° WNW 20:39:30 87° SSW 20:42:32 10° ESE
Cosmos 2084 3.5 20:38:40 10° SSW 20:42:40 48° SE 20:46:30 10° NE
SPOT 3 Rocket 4.0 20:38:50 10° SE 20:43:51 51° ENE 20:48:55 10° N
NOSS 2-2 (E) 2.8 20:47:02 10° SSW 20:50:14 51° SE 20:53:18 10° NE
NOSS 2-2 (C) 2.6 20:47:22 10° SW 20:50:33 84° SE 20:53:43 10° NE
In-Cosmos 22 Rocket 4.3 20:47:00 10° S 20:52:39 63° E 20:58:12 10° NNE
Landsat 4 4.4 20:49:58 12° SE 20:52:47 33° ENE 20:55:54 10° N
Nadezhda 3 Rocket 4.0 20:47:08 10° N 20:53:20 85° E 20:59:30 10° S
BREEZE-M DEB (TANK) 3.3 20:51:24 10° W 20:54:10 72° SSW 21:01:32 10° ESE
Cosmos 1544 Rocket 4.4 20:50:34 10° N 20:54:35 35° ENE 20:58:03 13° SE
NOSS 2-3 (E) 3.2 20:52:48 10° SSW 20:56:23 59° SE 21:00:23 10° NE
Cosmos 1844 4.2 20:51:20 10° SW 20:57:06 70° WNW 21:02:54 10° NNE
Terra 1.8 20:52:58 10° SSE 20:57:42 88° E 21:02:28 10° NNW
Meteor 1-21 Rocket 4.4 20:58:36 10° SSW 21:04:08 77° WNW 21:09:42 10° N
USA 305 4.3 21:01:36 10° WNW 21:05:06 33° N 21:08:18 10° ENE
GP-B 4.5 21:03:02 10° NNW 21:07:09 39° W 21:11:14 10° SSW
ATLAS CENTAUR R/B 1.6 21:03:34 10° NW 21:07:31 61° SW 21:10:52 15° SSE
Cosmos 1437 Rocket 3.7 21:07:19 16° SE 21:09:24 26° E 21:12:27 10° NE
Cosmos 1833 Rocket 2.9 21:08:11 10° NNW 21:13:47 61° ENE 21:18:22 15° SE
Meteor 2-1 Rocket 4.2 21:08:06 10° NNW 21:13:47 90° W 21:18:59 12° S
NOSS 2-3 (C) 3.1 21:10:30 10° SW 21:14:08 86° SE 21:18:14 10° NE
Cosmos 1455 Rocket 3.7 21:10:47 10° NNW 21:15:06 55° W 21:19:21 10° S
Cosmos 1975 Rocket 3.2 21:14:07 10° SSW 21:18:34 81° W 21:23:04 10° N
Cosmos 1025 Rocket 4.3 21:15:06 10° SW 21:19:06 40° WNW 21:23:07 10° N
Cosmos 44 3.8 21:14:31 10° S 21:19:28 42° ESE 21:24:13 10° NE
Orbus 7S? 3.9 21:17:25 10° WNW 21:19:49 28° SW 21:21:20 17° S
Lacrosse 5 2.6 21:16:42 10° WSW 21:21:40 56° NNW 21:26:40 10° NE
ERS-1 Rocket 3.7 21:18:40 10° S 21:23:30 48° W 21:28:21 10° NNW
Spot 2 Rocket 3.8 21:19:30 11° S 21:24:27 64° WSW 21:29:33 10° NNW
Cosmos 220 Rocket 3.9 21:21:05 10° NNW 21:25:15 83° ENE 21:28:09 19° SSE
Cosmos 2082 Rocket 3.6 21:21:56 10° NNW 21:26:45 28° NE 21:31:33 10° ESE
NOSS 2-2 (D) 3.2 21:24:50 10° SW 21:28:02 63° NW 21:31:10 10° NE
ATLAS 5 CENTAUR R/B 3.5 21:25:20 10° W 21:28:16 26° NNW 21:31:34 10° NNE
USA 307 4.2 21:24:42 10° WNW 21:28:22 37° N 21:31:53 10° ENE
Cosmos 2218 Rocket 4.3 21:23:42 15° SSE 21:28:37 49° E 21:34:31 10° NNE
Landsat 5 3.9 21:26:51 10° NNE 21:31:08 49° E 21:34:10 18° S
Cosmos 1844 Rocket 4.4 21:28:17 10° WSW 21:33:23 36° NW 21:38:30 10° NNE
Cosmos 2278 Rocket 3.1 21:31:13 18° SSE 21:34:17 29° ESE 21:39:04 10° NE
Cosmos 1606 3.0 21:31:59 10° NNW 21:35:29 57° W 21:38:05 17° S
MetOp-A 3.7 21:35:02 20° SSE 21:38:12 70° ENE 21:42:31 10° N
Cosmos 2298 Rocket 4.1 21:33:31 11° S 21:38:34 58° ESE 21:43:48 10° NNE
Cosmos 2341 Rocket 4.0 21:33:38 12° S 21:39:32 74° E 21:45:53 10° NNE
Cosmos 614 Rocket 4.0 21:36:13 10° NNW 21:41:17 67° ENE 21:44:35 21° SE
H-2A R/B 4.4 21:44:33 11° E 21:46:42 16° ENE 21:49:07 10° NNE
Cosmos 1869 4.0 21:43:39 10° NNW 21:47:19 46° W 21:50:08 16° SSW
Cosmos 1536 Rocket 3.6 21:47:10 22° SSE 21:49:47 59° E 21:54:02 10° NNE
CZ-4C R/B 4.1 21:44:08 10° NW 21:50:04 35° NNE 21:57:15 10° E
Ariane Rocket 4.0 21:47:25 11° SSW 21:51:56 41° W 21:56:44 10° NNW
ISS -2.8 21:50:01 10° WNW 21:53:15 48° N 21:56:30 10° ENE
COSMOS 2406 4.3 21:51:17 10° NNW 21:56:31 35° NE 22:00:48 14° ESE
USA 290 3.7 21:58:15 22° E 21:58:15 22° E 22:00:35 10° NE
ARIANE 5 R/B 3.2 21:58:54 24° SE 22:01:14 48° ENE 22:05:32 10° N
GENESIS II 4.2 21:58:43 10° NW 22:02:13 55° SW 22:03:31 33° S
Cosmos 1269 Rocket 4.5 21:58:45 10° NNW 22:03:57 52° ENE 22:07:06 23° SE
BREEZE-M DEB (TANK) 3.6 21:53:58 10° WNW 22:04:17 44° SW 22:06:11 27° SSE
ATLAS 3B R/B 3.7 22:01:26 22° SSE 22:04:35 30° ESE 22:10:55 10° NE
Cosmos 1727 Rocket 4.2 21:58:35 10° N 22:04:54 62° ENE 22:08:48 24° SSE
Cosmos 2228 3.4 22:01:29 10° NNW 22:05:37 56° W 22:08:06 22° SSW
Geosat 4.4 22:05:06 10° NNE 22:10:04 63° NW 22:15:00 10° SW
Cosmos 1943 Rocket 2.9 22:08:20 25° SSE 22:10:38 35° ESE 22:15:42 10° NE
USA 276 3.5 22:11:01 10° W 22:13:09 23° SW 22:13:09 23° SW
Cosmos 1821 Rocket 4.1 22:09:49 23° S 22:13:50 65° E 22:20:09 10° NNE
Gbstr 26 Del rocket 4.0 22:14:23 10° WNW 22:19:05 62° N 22:24:57 10° E
Cosmos 2058 4.2 22:19:03 23° ESE 22:19:57 25° E 22:23:19 10° NNE
Cosmos 2150 Rocket 4.4 22:14:53 10° SSW 22:20:15 68° WNW 22:25:43 10° NNE
ALOS 2 3.9 22:19:19 20° ESE 22:21:25 29° ENE 22:25:13 10° N
Cosmos 2084 Rocket 3.5 22:21:40 10° NW 22:25:38 63° NE 22:27:21 31° ESE
Spot 4 4.5 22:23:23 26° SE 22:25:46 46° ENE 22:30:25 10° N
NOSS 3-1 (C) 2.9 22:24:27 13° SSW 22:28:54 78° SE 22:34:50 10° NE
SeaSat 1 3.0 22:26:56 23° ESE 22:29:49 51° NE 22:34:36 10° NNW
Cosmos 1812 2.6 22:32:10 10° N 22:35:42 61° ENE 22:36:28 47° SE
Terra 4.3 22:34:00 10° WSW 22:35:57 12° W 22:37:55 10° WNW
USA 305 3.9 22:34:33 10° WNW 22:37:54 34° N 22:40:35 12° ENE
Cosmos 1238 Rocket 3.9 22:38:11 10° NNE 22:41:12 29° ENE 22:42:01 26° E
Aureole 2 4.1 22:41:11 57° SSW 22:41:44 85° WNW 22:45:07 10° NNE
BREEZE-M R/B 3.8 22:37:52 10° WSW 22:42:12 80° SSE 22:56:55 10° ENE
PSLV R/B 3.8 22:39:40 10° NNE 22:43:40 71° ESE 22:44:50 43° S
Cosmos 1892 Rocket 3.6 22:45:06 39° SSE 22:46:37 69° E 22:51:04 10° NNE
Cosmos 1140 Rocket 3.7 22:47:20 10° NNW 22:52:26 60° ENE 22:54:49 31° SE
MINOTAUR 4 R/B 3.5 22:54:24 10° NNE 22:57:02 68° ENE 22:57:02 68° ENE
Cosmos 1833 Rocket 4.2 22:52:47 10° NW 22:57:16 25° WSW 23:00:03 17° SW
Cosmos 2239 Rocket 4.5 22:55:30 28° S 22:58:59 87° W 23:05:17 10° N
SL-08 R/B 4.4 22:57:34 28° S 23:00:59 85° W 23:07:08 10° N
BREEZE-M DEB (TANK) 3.6 22:58:34 10° WNW 23:01:29 82° SSW 23:09:23 10° ESE
USA 307 3.8 22:58:30 10° WNW 23:02:10 41° NNE 23:05:30 10° E
Cosmos-2242 3.9 23:00:38 10° N 23:04:36 38° ENE 23:05:51 30° ESE
Cosmos 2123 Rocket 4.0 22:58:26 10° N 23:04:45 81° E 23:07:51 33° SSE
Lacrosse 5 3.7 23:00:55 10° WNW 23:05:27 32° N 23:10:01 10° ENE
CENTAUR R/B 4.5 22:58:28 10° NW 23:05:31 37° NNE 23:13:38 10° E
NOSS 3-1 (A) 3.0 23:03:57 32° SSW 23:06:20 70° SE 23:12:14 10° NE
Cosmos 1726 Rocket 4.1 23:03:29 10° NNW 23:07:40 48° W 23:09:05 34° SW
NOSS 8 (F) 4.2 23:05:38 10° NW 23:08:43 86° SW 23:09:06 68° SSE
Cosmos 2082 Rocket 2.3 23:05:42 10° NNW 23:11:15 62° WSW 23:13:28 36° S
Cosmos 1515 4.1 23:11:12 10° N 23:14:32 41° ENE 23:14:57 39° E
Cosmos 2278 Rocket 2.9 23:12:59 12° SW 23:18:05 53° NW 23:23:37 10° NNE
ULPM Upper Stage 2.7 23:15:36 10° NW 23:19:59 73° SW 23:20:59 50° SSE
Lacrosse 4 Rocket 3.8 23:20:40 10° E 23:20:40 10° E 23:20:42 10° E
Cosmos 2369 Rocket 3.4 23:19:37 24° ESE 23:20:51 26° ESE 23:25:23 10° NE
H-2A R/B 2.6 23:20:31 45° SW 23:21:16 53° WSW 23:25:02 10° NNW
PSLV R/B 4.0 23:17:11 10° NNE 23:21:24 48° E 23:22:20 41° SE
Cosmos 489 Rocket 4.4 23:24:25 33° S 23:27:18 75° ESE 23:33:31 10° NNE
ISS -3.9 23:26:52 10° WNW 23:30:10 88° WNW 23:30:10 88° WNW
USA 290 4.2 23:30:56 18° W 23:32:19 24° WNW 23:35:01 10° N
Cosmos 2058 Rocket 3.5 23:29:18 10° NNW 23:33:30 49° W 23:34:37 38° SW
Cosmos 1782 2.5 23:30:13 10° N 23:34:02 82° E 23:34:35 63° SSE
USA 229 DEB 4.0 23:32:18 34° SSE 23:34:10 42° ESE 23:40:23 10° NE
USA 229 4.0 23:32:27 33° SSE 23:34:18 41° ESE 23:40:30 10° NE
Cosmos 1862 4.0 23:35:38 35° ESE 23:36:01 36° E 23:39:36 10° NNE
CRYOSAT 2 4.3 23:31:24 10° N 23:36:18 87° W 23:37:58 42° S
ARIANE 5 R/B 4.4 23:36:22 18° WSW 23:37:52 21° W 23:41:15 10° NW
Cosmos 1378 2.9 23:34:54 10° N 23:38:06 63° E 23:38:06 63° E
CZ-4C R/B 3.0 23:32:18 10° NW 23:39:22 88° NE 23:45:35 21° SE
COSMOS 2455 4.1 23:34:31 10° NNW 23:40:07 37° NE 23:45:41 10° ESE
Meteor 2-2 Rocket 4.2 23:35:10 10° N 23:40:56 85° ENE 23:43:24 37° SSE
COSMOS 2406 3.7 23:35:33 10° NW 23:40:58 47° WSW 23:42:50 34° SSW
Cosmos 1934 Rocket 4.2 23:39:12 30° SSW 23:42:29 68° WNW 23:48:42 10° N
Cosmos 2221 3.9 23:41:28 10° N 23:45:13 30° ENE 23:46:52 23° ESE
Cosmos 2285 Rocket 4.1 23:45:34 10° NNW 23:52:02 75° ENE 23:55:34 28° SE
Cosmos 1943 Rocket 3.1 23:49:48 15° WSW 23:54:16 45° NW 23:59:40 10° NNE
